Temp
-15 -15 -15 -15 -15 -15 -16 -16 -16 -16 -16 -16 -16 -16 -16 -16 -16 -16 -16 -16 -16 -16 -16 -16 -16 -16 -16 -16 -16 -16 -16 -16 -16 -16 -16 -16 -16 -16 -16 -16 -16 -16 -16 -16 -16 -16 -16 -16 -16 -16 -16 -16 -16 -16 -16 -15 -15 -15 -15 -15 -15 -15 -15 -15 -15 -15 -15 -15 -15 -15 -15 -15 -15 -15
-15 -15 -15 -16 -16 -16 -16 -16 -16 -16 -16 -16 -16 -16 -16 -16 -16 -16 -16 -16 -16 -16 -16 -16 -16 -16 -16 -16 -16 -16 -17 -17 -17 -17 -17 -17 -17 -16 -16 -16 -16 -16 -16 -16 -16 -16 -16 -16 -16 -16 -16 -16 -16 -16 -16 -16 -16 -16 -16 -16 -16 -15 -15 -15 -15 -15 -15 -15 -15 -15 -15 -15 -15 -15
-16 -16 -16 -16 -16 -16 -16 -16 -16 -16 -16 -16 -16 -16 -16 -16 -17 -17 -17 -17 -17 -17 -17 -17 -17 -17 -17 -17 -17 -17 -17 -17 -17 -17 -17 -17 -17 -17 -17 -17 -17 -17 -17 -16 -16 -16 -16 -16 -16 -16 -16 -16 -16 -16 -16 -16 -16 -16 -16 -16 -16 -16 -15 -15 -15 -15 -15 -15 -15 -15 -15 -15 -15 -15
-16 -16 -16 -16 -16 -16 -16 -16 -16 -16 -17 -17 -17 -17 -17 -17 -17 -17 -17 -17 -17 -17 -17 -17 -17 -17 -17 -17 -17 -17 -17 -17 -17 -17 -17 -17 -17 -17 -17 -17 -17 -17 -17 -17 -17 -17 -17 -17 -16 -16 -16 -16 -16 -16 -16 -16 -16 -16 -16 -16 -16 -16 -16 -16 -16 -16 -15 -15 -15 -15 -15 -15 -15 -15
-17 -17 -17 -17 -17 -17 -17 -17 -17 -17 -17 -17 -17 -17 -17 -17 -17 -17 -17 -17 -17 -17 -17 -17 -17 -17 -17 -17 -17 -17 -17 -17 -17 -17 -17 -17 -17 -17 -17 -17 -17 -17 -17 -17 -17 -17 -17 -17 -17 -17 -17 -16 -16 -16 -16 -16 -16 -16 -16 -16 -16 -16 -16 -16 -16 -16 -16 -16 -16 -16 -15 -15 -15 -15
-17 -17 -17 -17 -17 -17 -17 -17 -17 -17 -17 -17 -17 -17 -17 -17 -17 -17 -17 -17 -17 -17 -17 -17 -17 -17 -17 -17 -17 -17 -17 -18 -18 -18 -17 -17 -17 -17 -17 -17 -17 -17 -17 -17 -17 -17 -17 -17 -17 -17 -17 -17 -17 -17 -17 -17 -17 -16 -16 -16 -16 -16 -16 -16 -16 -16 -16 -16 -16 -16 -16 -16 -15 -15
-17 -17 -17 -17 -17 -17 -17 -17 -17 -17 -17 -17 -17 -17 -17 -17 -17 -17 -17 -18 -18 -17 -17 -17 -18 -18 -18 -18 -18 -18 -18 -18 -18 -18 -18 -18 -18 -18 -18 -17 -17 -17 -17 -17 -17 -17 -17 -17 -17 -17 -17 -17 -17 -17 -17 -17 -17 -17 -17 -17 -17 -16 -16 -16 -16 -16 -16 -16 -16 -16 -16 -16 -16 -16
-17 -17 -17 -17 -17 -17 -17 -17 -17 -17 -17 -17 -17 -17 -17 -18 -18 -18 -18 -18 -18 -18 -18 -18 -18 -18 -18 -18 -18 -18 -18 -18 -18 -18 -18 -18 -18 -18 -18 -18 -18 -18 -17 -17 -17 -17 -17 -17 -17 -17 -17 -17 -17 -17 -17 -17 -17 -17 -17 -17 -17 -17 -17 -17 -17 -17 -17 -16 -16 -16 -16 -16 -16 -16
-18 -18 -18 -17 -17 -17 -18 -18 -18 -18 -18 -18 -18 -18 -18 -18 -18 -18 -18 -18 -18 -18 -18 -18 -18 -18 -18 -18 -18 -18 -18 -18 -18 -18 -18 -18 -18 -18 -18 -18 -18 -18 -18 -18 -17 -17 -17 -17 -17 -17 -17 -17 -17 -17 -17 -17 -17 -17 -17 -17 -17 -17 -17 -17 -17 -17 -17 -17 -17 -16 -16 -16 -16 -16
-18 -18 -18 -18 -18 -18 -18 -18 -18 -18 -18 -18 -18 -18 -18 -18 -18 -18 -17 -17 -17 -17 -17 -18 -18 -18 -18 -18 -18 -18 -18 -18 -17 -17 -17 -17 -17 -17 -17 -17 -17 -17 -17 -17 -17 -17 -17 -17 -17 -17 -17 -17 -17 -17 -17 -17 -17 -17 -17 -17 -17 -17 -17 -17 -17 -17 -17 -17 -17 -17 -17 -16 -16 -16
-18 -18 -18 -18 -18 -18 -18 -18 -18 -18 -18 -18 -18 -18 -18 -18 -18 -18 -18 -17 -17 -17 -17 -18 -18 -18 -18 -18 -18 -18 -18 -17 -17 -17 -17 -17 -17 -17 -17 -17 -17 -17 -17 -17 -17 -17 -17 -17 -17 -17 -17 -17 -17 -17 -17 -17 -17 -17 -17 -17 -17 -17 -17 -17 -17 -17 -17 -17 -17 -17 -17 -17 -17 -16
-18 -18 -18 -18 -18 -18 -18 -18 -18 -18 -18 -18 -18 -18 -18 -18 -18 -18 -18 -18 -18 -17 -17 -18 -18 -18 -18 -18 -18 -18 -18 -18 -17 -17 -17 -17 -17 -17 -17 -17 -17 -17 -17 -17 -17 -17 -17 -17 -17 -17 -17 -17 -17 -17 -17 -17 -17 -17 -17 -17 -17 -17 -17 -17 -17 -17 -17 -17 -17 -17 -17 -17 -17 -17
-18 -18 -18 -18 -18 -18 -18 -18 -18 -18 -18 -18 -18 -18 -18 -18 -18 -18 -18 -18 -18 -18 -18 -18 -18 -18 -18 -18 -18 -18 -18 -18 -18 -18 -17 -17 -17 -17 -17 -17 -17 -17 -17 -17 -17 -17 -17 -17 -17 -17 -17 -17 -17 -17 -17 -17 -17 -17 -17 -17 -17 -17 -17 -17 -17 -17 -17 -17 -17 -17 -17 -17 -17 -17
-18 -18 -18 -18 -18 -18 -18 -18 -18 -18 -18 -18 -18 -18 -18 -18 -18 -18 -18 -18 -18 -18 -18 -18 -18 -18 -18 -18 -18 -18 -18 -18 -18 -18 -18 -18 -18 -17 -17 -17 -17 -17 -17 -17 -17 -17 -17 -17 -17 -17 -17 -17 -17 -17 -17 -17 -17 -17 -17 -17 -17 -17 -17 -17 -17 -17 -17 -17 -17 -17 -17 -17 -17 -17
-18 -18 -18 -18 -18 -18 -18 -18 -18 -18 -18 -18 -18 -18 -18 -18 -18 -18 -18 -18 -18 -18 -18 -18 -18 -18 -18 -18 -18 -18 -18 -18 -18 -18 -18 -18 -18 -18 -18 -17 -17 -17 -17 -17 -17 -17 -17 -17 -17 -17 -17 -17 -17 -17 -17 -17 -17 -17 -17 -17 -17 -17 -17 -17 -17 -17 -17 -17 -17 -17 -17 -17 -17 -17
-18 -18 -18 -18 -18 -18 -18 -18 -18 -18 -18 -18 -18 -18 -18 -18 -18 -18 -18 -18 -18 -18 -18 -18 -18 -18 -18 -18 -18 -18 -18 -18 -18 -18 -18 -18 -18 -18 -18 -18 -18 -17 -17 -17 -17 -18 -18 -17 -17 -17 -18 -18 -18 -18 -18 -17 -17 -17 -17 -17 -17 -17 -17 -17 -17 -17 -17 -17 -18 -18 -17 -17 -17 -17
-18 -18 -19 -18 -18 -18 -19 -19 -19 -18 -18 -18 -18 -18 -18 -18 -18 -18 -18 -18 -18 -18 -18 -18 -18 -18 -18 -18 -18 -18 -18 -18 -18 -18 -18 -18 -18 -18 -18 -18 -18 -18 -18 -18 -18 -18 -18 -18 -17 -18 -18 -18 -18 -18 -18 -18 -18 -18 -17 -17 -17 -17 -17 -17 -17 -17 -17 -17 -17 -18 -18 -18 -18 -17
-18 -19 -19 -19 -19 -19 -19 -19 -19 -19 -19 -19 -19 -19 -19 -19 -19 -19 -19 -19 -18 -18 -18 -18 -18 -18 -18 -18 -18 -18 -18 -18 -18 -18 -18 -18 -18 -18 -18 -18 -18 -18 -18 -18 -18 -18 -18 -18 -18 -18 -18 -18 -18 -18 -18 -18 -18 -18 -18 -18 -18 -18 -18 -17 -17 -17 -17 -17 -17 -18 -18 -18 -18 -18
-19 -19 -19 -19 -19 -19 -19 -19 -19 -19 -19 -19 -19 -19 -19 -19 -19 -19 -19 -19 -19 -19 -18 -18 -18 -18 -18 -18 -18 -18 -18 -18 -18 -18 -18 -18 -18 -18 -18 -18 -18 -18 -18 -18 -18 -18 -18 -18 -18 -18 -18 -18 -18 -18 -18 -18 -18 -18 -18 -18 -18 -18 -18 -18 -18 -18 -18 -18 -18 -18 -18 -18 -18 -18
-19 -19 -19 -19 -19 -19 -19 -19 -20 -20 -20 -20 -20 -19 -19 -19 -19 -19 -19 -19 -19 -19 -19 -19 -18 -18 -18 -18 -18 -18 -18 -18 -18 -18 -18 -18 -18 -18 -18 -18 -18 -18 -18 -18 -18 -18 -18 -18 -18 -18 -18 -19 -19 -19 -19 -19 -18 -18 -18 -18 -18 -18 -18 -18 -18 -18 -18 -18 -18 -18 -18 -18 -18 -18
-20 -20 -20 -20 -20 -20 -20 -20 -20 -20 -20 -20 -20 -20 -20 -20 -19 -19 -19 -19 -19 -19 -19 -19 -19 -19 -18 -18 -18 -18 -18 -18 -18 -18 -18 -18 -18 -18 -18 -18 -18 -18 -18 -18 -18 -18 -19 -19 -19 -19 -19 -19 -19 -19 -19 -19 -19 -19 -19 -19 -19 -18 -18 -18 -18 -18 -18 -18 -18 -18 -18 -18 -18 -18
-20 -20 -20 -20 -20 -20 -20 -20 -20 -20 -20 -20 -20 -20 -20 -20 -20 -20 -19 -19 -19 -19 -19 -19 -19 -19 -19 -19 -19 -19 -19 -19 -19 -18 -18 -18 -18 -18 -18 -18 -19 -19 -19 -19 -19 -19 -19 -19 -19 -19 -19 -19 -19 -19 -19 -20 -19 -19 -19 -19 -19 -19 -19 -19 -19 -18 -18 -18 -18 -18 -18 -18 -18 -18
-20 -20 -20 -20 -20 -21 -21 -21 -20 -20 -21 -20 -20 -20 -20 -20 -20 -20 -20 -20 -20 -19 -19 -19 -19 -19 -19 -19 -19 -19 -19 -19 -19 -19 -19 -19 -19 -19 -19 -19 -19 -19 -19 -19 -19 -19 -19 -19 -19 -20 -20 -20 -20 -20 -20 -20 -20 -20 -20 -20 -20 -20 -20 -20 -19 -19 -19 -18 -18 -18 -18 -18 -18 -18
-20 -21 -21 -21 -21 -21 -21 -21 -21 -21 -21 -21 -21 -21 -21 -20 -20 -20 -20 -20 -20 -20 -20 -19 -19 -19 -19 -19 -19 -19 -19 -19 -19 -19 -19 -19 -19 -19 -19 -19 -19 -19 -20 -20 -20 -20 -20 -20 -20 -20 -20 -20 -20 -21 -21 -21 -21 -21 -21 -21 -21 -20 -20 -20 -20 -20 -20 -19 -19 -19 -19 -18 -18 -18
-21 -21 -21 -21 -21 -21 -21 -21 -21 -21 -21 -21 -21 -21 -21 -21 -21 -20 -20 -20 -20 -20 -20 -20 -20 -20 -20 -20 -20 -20 -20 -20 -20 -20 -20 -20 -20 -20 -20 -20 -20 -20 -20 -20 -20 -20 -20 -20 -20 -21 -21 -21 -21 -21 -21 -21 -21 -21 -21 -21 -21 -21 -21 -21 -21 -21 -20 -20 -20 -19 -19 -19 -19 -19
-21 -21 -21 -21 -22 -22 -22 -22 -21 -21 -21 -21 -21 -21 -21 -21 -21 -21 -20 -20 -20 -20 -20 -20 -20 -20 -20 -20 -20 -20 -20 -20 -20 -20 -20 -20 -20 -20 -20 -20 -20 -20 -20 -20 -20 -20 -21 -21 -21 -21 -21 -21 -21 -21 -21 -21 -21 -21 -21 -21 -21 -21 -21 -21 -21 -21 -21 -21 -21 -20 -20 -20 -20 -19
-21 -21 -22 -22 -22 -22 -22 -22 -22 -22 -22 -21 -21 -21 -21 -21 -21 -21 -21 -21 -20 -20 -20 -20 -20 -20 -20 -20 -20 -20 -20 -20 -20 -20 -20 -20 -20 -20 -20 -20 -20 -20 -21 -21 -21 -21 -21 -21 -21 -21 -21 -21 -21 -21 -21 -21 -21 -21 -21 -21 -21 -21 -21 -21 -21 -21 -21 -21 -21 -21 -21 -20 -20 -20
-22 -22 -22 -22 -22 -22 -22 -22 -22 -22 -22 -22 -22 -21 -21 -21 -21 -21 -21 -21 -21 -21 -21 -21 -21 -21 -21 -21 -21 -21 -21 -21 -21 -21 -21 -21 -21 -21 -21 -21 -21 -21 -21 -21 -21 -21 -21 -21 -21 -21 -21 -21 -21 -21 -21 -21 -21 -21 -21 -21 -21 -21 -21 -21 -21 -21 -21 -21 -21 -21 -21 -21 -21 -21
-22 -22 -22 -22 -22 -22 -22 -22 -22 -22 -22 -22 -22 -22 -22 -22 -21 -21 -21 -21 -21 -21 -21 -21 -21 -21 -21 -21 -21 -21 -21 -21 -21 -21 -21 -21 -21 -21 -21 -21 -22 -22 -22 -22 -22 -22 -21 -21 -21 -21 -22 -22 -21 -21 -21 -21 -21 -21 -21 -21 -21 -21 -21 -21 -21 -21 -21 -21 -21 -21 -20 -21 -21 -21
-22 -22 -22 -22 -22 -22 -22 -22 -22 -22 -22 -22 -22 -22 -22 -22 -22 -22 -21 -21 -22 -22 -22 -22 -22 -22 -22 -22 -22 -22 -22 -22 -22 -22 -22 -22 -22 -22 -22 -22 -22 -22 -22 -22 -22 -22 -22 -22 -22 -22 -22 -22 -22 -22 -22 -21 -21 -21 -21 -21 -21 -21 -21 -21 -21 -21 -21 -21 -21 -21 -21 -21 -21 -21
-22 -22 -22 -22 -23 -22 -22 -22 -22 -22 -22 -22 -22 -22 -22 -22 -22 -22 -22 -22 -22 -22 -22 -22 -22 -22 -22 -22 -22 -22 -22 -22 -22 -22 -22 -22 -22 -22 -22 -22 -22 -22 -22 -22 -22 -22 -22 -22 -22 -22 -22 -22 -22 -22 -22 -22 -22 -22 -22 -21 -21 -21 -21 -21 -21 -21 -21 -21 -21 -21 -21 -21 -21 -21
-22 -23 -23 -23 -23 -23 -23 -23 -22 -22 -23 -23 -23 -22 -22 -22 -22 -22 -22 -22 -23 -23 -23 -23 -23 -23 -23 -23 -23 -23 -23 -23 -22 -22 -22 -22 -22 -22 -22 -22 -22 -22 -22 -22 -22 -22 -22 -22 -22 -22 -22 -22 -22 -22 -22 -22 -22 -22 -22 -22 -22 -22 -22 -22 -22 -21 -21 -21 -21 -21 -21 -21 -21 -21
-23 -23 -23 -23 -23 -23 -23 -23 -23 -23 -23 -23 -23 -23 -23 -23 -23 -23 -23 -23 -23 -23 -23 -23 -23 -23 -23 -23 -23 -23 -23 -23 -23 -23 -22 -22 -22 -22 -22 -22 -22 -22 -22 -22 -22 -22 -22 -22 -22 -22 -22 -22 -22 -22 -22 -22 -22 -22 -22 -22 -22 -22 -22 -22 -22 -22 -22 -21 -21 -21 -21 -21 -21 -21
-23 -23 -23 -23 -23 -23 -23 -23 -23 -23 -23 -23 -23 -23 -23 -23 -23 -23 -24 -24 -24 -24 -24 -24 -23 -23 -23 -23 -23 -23 -23 -23 -23 -23 -23 -23 -23 -23 -22 -22 -22 -22 -22 -22 -22 -22 -22 -22 -22 -22 -23 -23 -23 -22 -22 -22 -22 -22 -22 -22 -22 -22 -22 -22 -22 -22 -22 -22 -21 -21 -22 -21 -21 -21
-23 -23 -23 -23 -23 -23 -23 -23 -23 -23 -23 -23 -23 -23 -23 -24 -24 -24 -24 -24 -24 -24 -24 -24 -24 -23 -23 -23 -23 -23 -23 -23 -23 -23 -23 -23 -22 -22 -22 -22 -22 -22 -22 -22 -22 -22 -22 -22 -23 -23 -23 -23 -23 -23 -22 -22 -22 -22 -22 -22 -22 -22 -22 -22 -22 -21 -22 -22 -21 -21 -22 -22 -22 -21
-24 -24 -23 -23 -24 -24 -24 -24 -24 -24 -24 -24 -24 -24 -24 -24 -24 -24 -24 -24 -24 -24 -24 -24 -24 -24 -24 -24 -24 -24 -24 -24 -23 -23 -23 -22 -22 -22 -22 -22 -22 -23 -23 -22 -23 -23 -23 -23 -23 -23 -23 -23 -23 -23 -23 -23 -22 -22 -22 -22 -22 -22 -22 -22 -22 -22 -22 -22 -21 -21 -21 -22 -22 -21
-24 -24 -24 -24 -24 -24 -24 -24 -24 -24 -24 -24 -24 -24 -24 -24 -24 -24 -24 -24 -24 -24 -24 -24 -24 -24 -24 -24 -24 -24 -24 -23 -23 -23 -22 -22 -22 -22 -22 -23 -23 -23 -23 -23 -23 -23 -23 -23 -23 -23 -23 -23 -23 -23 -23 -23 -22 -22 -22 -22 -22 -22 -22 -22 -22 -22 -22 -22 -22 -22 -22 -22 -21 -21
-24 -24 -24 -24 -24 -24 -24 -24 -24 -25 -25 -25 -25 -25 -25 -25 -25 -25 -24 -24 -24 -24 -24 -24 -24 -24 -24 -24 -24 -24 -24 -23 -23 -23 -22 -22 -22 -23 -23 -23 -23 -23 -23 -23 -23 -23 -23 -23 -23 -23 -23 -23 -23 -23 -23 -23 -23 -22 -22 -22 -22 -22 -22 -22 -22 -22 -22 -22 -22 -22 -22 -22 -22 -21
-24 -25 -25 -24 -24 -24 -24 -24 -25 -25 -25 -25 -25 -25 -25 -25 -25 -24 -24 -24 -24 -24 -24 -24 -24 -24 -24 -24 -24 -24 -23 -23 -23 -23 -23 -23 -23 -23 -23 -23 -23 -23 -23 -23 -22 -22 -22 -23 -23 -23 -23 -23 -23 -23 -23 -23 -23 -23 -23 -22 -22 -22 -22 -22 -22 -22 -23 -23 -23 -22 -22 -22 -22 -22
-25 -25 -25 -24 -24 -24 -24 -25 -25 -25 -25 -25 -25 -25 -25 -25 -25 -24 -24 -24 -24 -25 -25 -24 -24 -24 -24 -24 -24 -24 -23 -23 -23 -23 -23 -23 -23 -23 -23 -23 -23 -23 -23 -23 -23 -23 -23 -23 -23 -23 -23 -23 -23 -23 -23 -23 -23 -23 -23 -23 -22 -22 -22 -22 -23 -23 -23 -23 -23 -23 -22 -22 -22 -22
-25 -25 -25 -25 -25 -25 -25 -25 -25 -25 -25 -25 -25 -25 -25 -25 -25 -24 -25 -25 -25 -25 -25 -24 -24 -24 -24 -24 -24 -24 -24 -23 -23 -23 -23 -23 -23 -23 -23 -23 -23 -23 -23 -23 -23 -23 -23 -23 -23 -23 -23 -23 -23 -23 -23 -23 -23 -23 -23 -23 -23 -23 -23 -23 -23 -23 -23 -23 -23 -23 -23 -23 -22 -22
-25 -25 -25 -25 -25 -25 -25 -25 -25 -25 -25 -25 -25 -25 -25 -25 -25 -25 -25 -25 -25 -25 -25 -24 -24 -24 -24 -24 -24 -24 -24 -23 -23 -23 -23 -23 -23 -23 -23 -23 -23 -23 -23 -23 -23 -23 -23 -23 -23 -23 -23 -23 -23 -23 -23 -23 -23 -23 -23 -23 -23 -23 -23 -24 -24 -23 -23 -23 -23 -23 -23 -23 -23 -23
-25 -25 -25 -25 -25 -25 -25 -25 -25 -25 -25 -25 -25 -25 -25 -25 -25 -25 -25 -25 -25 -25 -25 -25 -24 -24 -24 -24 -24 -24 -24 -24 -23 -23 -23 -23 -23 -23 -23 -23 -23 -23 -23 -23 -23 -23 -23 -23 -23 -23 -23 -23 -24 -23 -23 -23 -23 -23 -23 -23 -23 -23 -24 -24 -24 -24 -24 -24 -24 -24 -23 -23 -23 -23
-25 -25 -25 -25 -25 -25 -25 -25 -25 -25 -25 -25 -25 -25 -25 -25 -25 -25 -25 -25 -25 -25 -25 -25 -25 -24 -24 -24 -24 -24 -24 -24 -24 -23 -23 -23 -23 -23 -23 -23 -23 -23 -23 -23 -23 -23 -23 -23 -23 -23 -23 -23 -23 -23 -23 -23 -23 -23 -23 -23 -23 -24 -24 -24 -24 -24 -24 -24 -24 -24 -24 -24 -24 -24
-25 -25 -25 -25 -25 -25 -25 -25 -25 -25 -25 -25 -25 -25 -26 -26 -26 -25 -25 -25 -25 -25 -25 -25 -25 -24 -24 -24 -24 -24 -24 -24 -24 -24 -23 -23 -23 -23 -23 -23 -23 -23 -23 -23 -23 -23 -23 -23 -23 -23 -23 -23 -23 -23 -23 -23 -23 -23 -23 -24 -24 -24 -24 -24 -24 -24 -24 -24 -24 -24 -24 -24 -24 -24
Height
5766 5766 5766 5766 5767 5767 5768 5768 5769 5769 5769 5769 5769 5769 5770 5770 5770 5769 5769 5769 5769 5769 5769 5769 5769 5768 5768 5768 5768 5767 5767 5767 5766 5766 5766 5766 5766 5766 5766 5766 5766 5765 5765 5765 5765 5765 5765 5766 5766 5766 5766 5766 5766 5765 5765 5765 5765 5765 5765 5765 5766 5766 5767 5768 5769 5769 5770 5771 5772 5773 5773 5774 5774 5775
5764 5764 5764 5765 5765 5765 5766 5766 5767 5767 5767 5767 5767 5768 5768 5768 5768 5768 5767 5767 5767 5767 5767 5767 5767 5767 5766 5766 5766 5766 5766 5765 5765 5765 5765 5765 5764 5764 5764 5764 5764 5764 5764 5764 5764 5764 5764 5764 5764 5764 5764 5764 5763 5763 5763 5763 5762 5762 5762 5762 5762 5762 5763 5764 5764 5765 5766 5767 5767 5768 5769 5769 5770 5770
5762 5763 5763 5763 5763 5764 5764 5764 5765 5765 5765 5765 5766 5766 5766 5765 5765 5765 5765 5765 5765 5765 5765 5764 5764 5764 5764 5764 5764 5764 5763 5763 5763 5763 5763 5762 5762 5762 5762 5762 5762 5762 5762 5762 5762 5762 5762 5762 5762 5761 5761 5761 5761 5761 5760 5760 5760 5760 5759 5759 5759 5759 5759 5759 5760 5760 5761 5762 5762 5763 5763 5764 5765 5765
5761 5761 5762 5762 5762 5762 5762 5762 5763 5763 5763 5763 5763 5764 5764 5763 5763 5763 5763 5763 5763 5763 5763 5762 5762 5762 5762 5761 5761 5761 5761 5761 5761 5761 5761 5760 5760 5760 5760 5760 5760 5760 5760 5760 5760 5760 5760 5759 5759 5759 5759 5759 5759 5758 5758 5758 5757 5757 5757 5756 5756 5756 5755 5755 5755 5756 5756 5757 5757 5757 5757 5758 5759 5760
5759 5759 5760 5760 5760 5760 5761 5761 5761 5761 5761 5761 5761 5761 5761 5761 5761 5761 5761 5760 5760 5760 5760 5760 5760 5760 5759 5759 5759 5759 5759 5759 5759 5759 5759 5758 5758 5758 5758 5758 5758 5758 5758 5758 5757 5757 5757 5757 5756 5756 5756 5756 5756 5756 5756 5755 5755 5755 5754 5754 5753 5753 5753 5753 5752 5752 5752 5753 5753 5753 5753 5753 5753 5754
5757 5757 5757 5757 5758 5758 5759 5759 5759 5759 5759 5759 5759 5759 5759 5759 5759 5759 5758 5758 5758 5758 5757 5757 5757 5757 5757 5757 5757 5757 5757 5757 5757 5756 5756 5756 5756 5756 5756 5755 5755 5755 5755 5755 5754 5754 5754 5754 5753 5753 5753 5753 5753 5753 5752 5752 5752 5752 5751 5751 5750 5750 5750 5749 5749 5749 5749 5749 5749 5749 5749 5749 5748 5748
5755 5755 5755 5755 5755 5756 5756 5756 5757 5757 5757 5757 5757 5757 5757 5756 5756 5756 5756 5756 5756 5755 5755 5755 5755 5755 5754 5754 5754 5754 5754 5754 5754 5754 5754 5754 5753 5753 5753 5753 5753 5752 5752 5752 5752 5751 5751 5751 5750 5750 5750 5749 5749 5749 5749 5749 5748 5748 5748 5748 5747 5747 5746 5746 5746 5746 5746 5746 5746 5746 5746 5745 5744 5744
5753 5753 5753 5753 5753 5753 5753 5754 5754 5754 5754 5754 5754 5754 5754 5754 5754 5754 5753 5753 5753 5753 5753 5752 5752 5752 5752 5752 5752 5751 5751 5751 5751 5751 5751 5751 5751 5750 5750 5750 5750 5749 5749 5749 5749 5748 5748 5748 5747 5747 5746 5746 5746 5745 5745 5745 5745 5745 5744 5744 5744 5743 5743 5743 5742 5742 5742 5742 5742 5742 5741 5741 5741 5740
5750 5750 5751 5751 5751 5751 5751 5751 5751 5751 5751 5751 5751 5751 5751 5751 5750 5750 5750 5750 5750 5750 5750 5750 5750 5750 5750 5749 5749 5748 5748 5748 5748 5748 5748 5747 5747 5747 5747 5747 5746 5746 5746 5745 5745 5745 5745 5744 5744 5744 5743 5743 5742 5742 5742 5741 5741 5741 5741 5740 5740 5740 5739 5739 5739 5739 5738 5738 5738 5738 5737 5737 5737 5737
5748 5748 5748 5748 5748 5748 5748 5748 5748 5748 5749 5749 5748 5748 5748 5748 5747 5747 5747 5747 5747 5747 5747 5747 5747 5747 5746 5746 5745 5745 5744 5744 5744 5744 5744 5744 5743 5743 5743 5743 5743 5742 5742 5742 5741 5741 5741 5741 5741 5740 5740 5739 5739 5738 5738 5738 5737 5737 5737 5736 5736 5736 5736 5735 5735 5735 5734 5734 5734 5733 5733 5733 5733 5733
5745 5745 5745 5745 5745 5745 5745 5745 5745 5746 5746 5746 5746 5745 5745 5745 5745 5744 5744 5744 5744 5743 5744 5744 5744 5743 5743 5742 5741 5741 5741 5740 5740 5740 5739 5739 5739 5739 5738 5738 5738 5738 5737 5737 5737 5737 5737 5737 5736 5736 5736 5736 5735 5734 5734 5734 5734 5733 5733 5732 5732 5731 5731 5731 5730 5730 5730 5730 5729 5729 5729 5729 5728 5728
5741 5741 5741 5741 5741 5741 5742 5742 5742 5742 5742 5742 5742 5742 5742 5742 5742 5741 5741 5741 5740 5740 5740 5740 5740 5739 5738 5738 5737 5737 5737 5736 5736 5735 5735 5734 5734 5734 5733 5733 5733 5733 5732 5732 5732 5732 5732 5731 5731 5731 5731 5731 5730 5729 5729 5730 5729 5728 5728 5728 5727 5727 5726 5726 5725 5725 5725 5724 5724 5724 5724 5723 5723 5723
5738 5738 5738 5737 5737 5737 5738 5738 5738 5738 5738 5738 5739 5738 5738 5738 5738 5738 5737 5737 5736 5736 5736 5736 5735 5734 5733 5733 5733 5732 5732 5732 5731 5730 5730 5729 5729 5728 5728 5727 5727 5728 5727 5726 5726 5726 5726 5726 5725 5724 5725 5725 5724 5723 5723 5723 5723 5723 5722 5722 5722 5721 5721 5720 5720 5719 5719 5719 5718 5718 5718 5718 5718 5718
5735 5735 5734 5734 5734 5734 5734 5734 5734 5734 5734 5734 5734 5734 5734 5734 5734 5733 5733 5733 5732 5732 5732 5731 5731 5730 5729 5728 5728 5728 5727 5727 5726 5725 5725 5724 5723 5723 5722 5721 5720 5721 5721 5720 5719 5718 5718 5718 5718 5717 5717 5717 5717 5716 5715 5715 5715 5715 5715 5715 5715 5715 5714 5714 5714 5713 5713 5713 5713 5712 5712 5712 5712 5712
5732 5732 5731 5730 5730 5730 5730 5730 5730 5730 5730 5730 5730 5730 5730 5729 5729 5729 5728 5728 5728 5727 5727 5726 5726 5725 5724 5723 5722 5722 5721 5721 5721 5720 5719 5718 5717 5716 5716 5715 5713 5713 5714 5713 5712 5711 5709 5709 5709 5709 5708 5707 5708 5707 5706 5706 5706 5706 5707 5706 5706 5706 5706 5706 5706 5706 5706 5706 5706 5706 5706 5706 5706 5706
5728 5727 5726 5725 5725 5726 5726 5726 5726 5726 5726 5726 5725 5725 5725 5725 5724 5724 5723 5723 5722 5722 5721 5720 5720 5720 5718 5717 5717 5716 5715 5714 5714 5713 5712 5712 5711 5710 5709 5708 5707 5706 5705 5705 5704 5703 5701 5700 5700 5700 5699 5698 5698 5698 5697 5697 5696 5696 5697 5698 5697 5697 5697 5697 5697 5698 5698 5698 5698 5699 5699 5699 5699 5699
5723 5722 5721 5720 5721 5721 5721 5721 5721 5721 5721 5721 5721 5720 5720 5720 5719 5719 5718 5717 5717 5716 5715 5715 5714 5714 5713 5712 5711 5711 5709 5708 5707 5707 5706 5705 5704 5703 5702 5701 5699 5698 5697 5696 5696 5695 5693 5692 5691 5690 5689 5688 5688 5688 5688 5687 5687 5686 5686 5687 5688 5687 5687 5688 5688 5688 5688 5689 5689 5690 5690 5691 5691 5691
5718 5717 5717 5716 5717 5717 5717 5717 5717 5717 5716 5716 5716 5716 5715 5715 5714 5714 5713 5712 5712 5711 5710 5710 5709 5709 5708 5706 5705 5704 5703 5702 5701 5700 5699 5698 5697 5696 5694 5693 5691 5690 5689 5688 5687 5686 5685 5683 5682 5681 5680 5679 5678 5678 5677 5677 5677 5677 5676 5676 5677 5678 5678 5678 5678 5678 5678 5679 5679 5680 5681 5682 5682 5683
5713 5712 5712 5711 5711 5712 5712 5712 5712 5712 5711 5711 5711 5710 5710 5709 5709 5708 5708 5707 5707 5706 5705 5704 5703 5702 5701 5700 5699 5698 5697 5696 5695 5693 5692 5691 5690 5689 5687 5685 5684 5682 5681 5680 5679 5678 5677 5675 5674 5672 5671 5670 5670 5669 5667 5667 5668 5668 5667 5666 5666 5667 5667 5668 5668 5668 5669 5669 5669 5670 5671 5672 5673 5674
5707 5707 5706 5706 5706 5706 5707 5707 5706 5706 5706 5705 5705 5704 5704 5704 5703 5703 5702 5701 5701 5700 5699 5698 5697 5696 5695 5694 5692 5691 5690 5688 5687 5686 5685 5683 5682 5681 5680 5678 5676 5674 5673 5672 5671 5670 5669 5667 5665 5664 5662 5661 5661 5660 5658 5657 5658 5658 5657 5656 5656 5656 5657 5657 5657 5658 5658 5658 5659 5660 5661 5662 5663 5664
5701 5701 5701 5701 5701 5701 5701 5701 5701 5700 5700 5700 5699 5699 5698 5698 5698 5697 5696 5696 5695 5694 5693 5692 5690 5689 5688 5687 5686 5684 5683 5681 5680 5678 5677 5675 5674 5673 5672 5670 5669 5667 5665 5664 5662 5661 5660 5658 5657 5655 5654 5652 5652 5651 5649 5647 5647 5647 5646 5646 5645 5645 5645 5646 5646 5646 5647 5647 5648 5649 5650 5651 5652 5653
5695 5695 5695 5695 5695 5695 5695 5695 5695 5695 5695 5694 5694 5694 5693 5693 5692 5692 5691 5690 5689 5688 5687 5686 5684 5683 5682 5680 5679 5677 5676 5674 5672 5671 5669 5668 5666 5665 5664 5662 5661 5659 5657 5655 5654 5653 5651 5649 5648 5646 5645 5644 5642 5641 5640 5638 5636 5636 5635 5635 5635 5634 5633 5634 5633 5634 5635 5636 5637 5638 5639 5640 5641 5642
5689 5689 5689 5690 5690 5690 5690 5690 5690 5690 5690 5690 5689 5688 5688 5687 5687 5686 5685 5684 5683 5682 5681 5679 5678 5677 5675 5673 5672 5670 5669 5667 5665 5663 5661 5660 5658 5657 5656 5654 5653 5651 5648 5646 5646 5645 5643 5641 5639 5637 5635 5635 5634 5631 5630 5629 5627 5626 5624 5624 5623 5623 5623 5622 5621 5621 5623 5625 5626 5627 5628 5629 5631 5631
5684 5684 5684 5684 5685 5684 5685 5685 5685 5685 5685 5684 5684 5683 5682 5682 5681 5681 5679 5678 5677 5676 5675 5673 5672 5670 5668 5667 5665 5663 5662 5660 5658 5656 5654 5653 5651 5649 5648 5646 5644 5643 5641 5638 5637 5637 5635 5633 5630 5628 5625 5625 5625 5623 5621 5620 5619 5617 5615 5614 5613 5613 5613 5612 5610 5610 5610 5612 5614 5615 5616 5618 5620 5621
5678 5678 5679 5679 5679 5679 5679 5679 5679 5679 5679 5679 5678 5678 5677 5676 5675 5675 5674 5672 5670 5669 5668 5666 5665 5663 5662 5660 5658 5656 5655 5653 5651 5649 5647 5646 5644 5642 5640 5638 5637 5636 5634 5631 5629 5628 5626 5624 5621 5619 5617 5616 5615 5614 5612 5611 5610 5608 5607 5606 5604 5604 5603 5603 5601 5600 5600 5601 5602 5603 5605 5606 5608 5610
5672 5673 5673 5673 5673 5674 5674 5674 5674 5674 5674 5673 5673 5672 5671 5670 5669 5668 5667 5666 5664 5663 5661 5660 5658 5656 5654 5653 5651 5649 5647 5645 5643 5642 5640 5638 5636 5634 5632 5631 5630 5628 5626 5623 5620 5618 5617 5615 5613 5611 5609 5608 5606 5604 5603 5601 5600 5598 5597 5596 5595 5595 5594 5594 5593 5592 5591 5592 5592 5592 5594 5596 5597 5598
5667 5667 5667 5667 5668 5668 5668 5668 5668 5668 5668 5668 5667 5666 5665 5664 5663 5662 5661 5659 5658 5656 5654 5652 5651 5649 5647 5645 5643 5642 5640 5638 5636 5634 5632 5631 5629 5627 5625 5624 5622 5620 5618 5615 5612 5610 5608 5607 5605 5603 5601 5599 5597 5595 5593 5591 5590 5589 5587 5586 5585 5585 5584 5584 5584 5583 5583 5583 5583 5583 5584 5585 5586 5586
5661 5661 5661 5662 5662 5662 5662 5662 5662 5662 5662 5662 5661 5660 5659 5658 5657 5655 5654 5652 5651 5649 5647 5645 5643 5641 5640 5638 5636 5634 5632 5630 5628 5627 5625 5624 5622 5620 5619 5617 5614 5612 5609 5606 5604 5602 5600 5598 5596 5594 5592 5589 5587 5585 5583 5582 5580 5578 5577 5576 5575 5575 5574 5574 5574 5574 5574 5574 5574 5574 5574 5575 5576 5577
5654 5655 5655 5656 5656 5656 5657 5657 5657 5657 5656 5656 5655 5654 5653 5651 5650 5648 5647 5645 5643 5641 5640 5638 5636 5634 5633 5631 5629 5627 5625 5623 5621 5620 5619 5617 5615 5613 5611 5609 5607 5604 5601 5599 5596 5594 5592 5590 5588 5585 5582 5579 5577 5575 5573 5572 5570 5567 5566 5566 5565 5565 5563 5562 5563 5563 5564 5564 5564 5565 5565 5566 5566 5567
5648 5649 5649 5650 5650 5650 5651 5651 5651 5650 5650 5649 5649 5647 5646 5645 5643 5641 5639 5638 5636 5634 5632 5631 5629 5627 5625 5624 5622 5620 5618 5616 5614 5613 5612 5610 5609 5606 5604 5602 5599 5596 5593 5591 5588 5586 5584 5581 5579 5576 5573 5570 5568 5565 5563 5562 5560 5558 5557 5556 5556 5555 5553 5552 5552 5553 5553 5554 5554 5555 5555 5556 5557 5557
5641 5642 5643 5643 5644 5644 5644 5645 5645 5644 5644 5643 5642 5640 5639 5637 5636 5634 5632 5630 5629 5627 5625 5624 5623 5621 5619 5617 5616 5614 5613 5611 5608 5607 5605 5604 5601 5599 5597 5595 5592 5589 5585 5582 5580 5578 5576 5573 5570 5568 5565 5562 5560 5557 5555 5554 5552 5550 5549 5548 5547 5546 5545 5543 5543 5543 5543 5544 5545 5545 5546 5546 5547 5547
5634 5635 5636 5637 5638 5638 5638 5638 5638 5637 5636 5635 5634 5633 5631 5630 5628 5627 5625 5623 5622 5620 5619 5618 5617 5615 5614 5612 5610 5609 5607 5605 5603 5601 5599 5597 5594 5592 5590 5587 5585 5581 5578 5575 5572 5570 5568 5565 5563 5560 5558 5556 5553 5551 5549 5548 5546 5544 5543 5542 5540 5539 5537 5536 5535 5535 5535 5535 5536 5536 5536 5536 5537 5538
5628 5629 5630 5631 5631 5631 5631 5631 5631 5630 5629 5628 5626 5625 5624 5623 5621 5620 5618 5617 5616 5615 5613 5612 5611 5610 5608 5607 5605 5603 5601 5599 5597 5595 5592 5590 5588 5586 5583 5580 5577 5574 5571 5568 5565 5563 5562 5559 5557 5554 5552 5550 5548 5546 5544 5543 5541 5539 5537 5536 5535 5533 5531 5530 5529 5529 5528 5528 5528 5528 5528 5528 5528 5529
5621 5622 5623 5624 5624 5624 5624 5623 5623 5622 5621 5620 5619 5618 5616 5615 5614 5613 5612 5611 5610 5609 5608 5607 5606 5605 5603 5602 5600 5598 5596 5593 5591 5589 5586 5584 5582 5579 5576 5573 5570 5567 5565 5562 5560 5558 5556 5554 5552 5550 5548 5546 5544 5541 5539 5537 5535 5533 5531 5530 5529 5528 5526 5524 5523 5523 5522 5522 5522 5522 5521 5521 5522 5522
5615 5616 5616 5617 5617 5617 5616 5615 5615 5614 5613 5612 5611 5611 5610 5608 5607 5607 5606 5605 5604 5604 5603 5603 5601 5600 5598 5596 5594 5592 5590 5588 5585 5583 5581 5578 5576 5572 5569 5566 5564 5561 5559 5557 5555 5553 5552 5550 5548 5546 5544 5542 5539 5536 5533 5531 5529 5527 5526 5524 5523 5522 5520 5518 5517 5516 5516 5516 5517 5517 5516 5516 5517 5517
5608 5609 5610 5610 5610 5609 5608 5607 5607 5606 5606 5605 5604 5603 5603 5602 5602 5601 5600 5600 5599 5599 5599 5598 5596 5595 5593 5592 5590 5588 5585 5583 5580 5578 5575 5572 5568 5565 5562 5561 5559 5557 5555 5553 5551 5550 5548 5546 5544 5542 5540 5537 5534 5531 5528 5525 5523 5521 5520 5519 5517 5515 5514 5512 5511 5510 5510 5511 5511 5512 5512 5512 5512 5512
5602 5603 5603 5603 5602 5601 5600 5600 5600 5599 5599 5598 5598 5597 5597 5597 5596 5596 5596 5595 5595 5595 5594 5593 5592 5591 5589 5588 5586 5583 5580 5578 5575 5572 5568 5565 5562 5559 5558 5556 5555 5553 5551 5549 5548 5546 5544 5542 5540 5537 5535 5532 5529 5527 5524 5521 5518 5516 5515 5513 5511 5509 5508 5507 5506 5505 5505 5505 5506 5506 5506 5506 5506 5507
5596 5596 5596 5595 5595 5594 5594 5594 5594 5593 5593 5593 5592 5592 5592 5592 5592 5592 5591 5591 5591 5590 5590 5589 5588 5587 5586 5584 5582 5579 5575 5572 5569 5565 5562 5559 5557 5555 5554 5553 5551 5549 5548 5546 5544 5543 5541 5538 5535 5532 5530 5527 5525 5522 5520 5517 5514 5512 5510 5508 5506 5505 5504 5503 5502 5501 5501 5501 5501 5501 5501 5501 5501 5501
5590 5590 5590 5589 5589 5588 5588 5588 5588 5588 5588 5588 5588 5588 5588 5588 5588 5588 5587 5587 5587 5586 5586 5586 5585 5584 5582 5580 5578 5574 5570 5567 5563 5559 5556 5554 5553 5552 5551 5549 5548 5546 5544 5542 5541 5539 5537 5534 5531 5528 5525 5523 5520 5518 5516 5513 5510 5508 5506 5504 5502 5500 5500 5499 5498 5497 5497 5497 5496 5496 5496 5496 5496 5497
5584 5585 5584 5584 5584 5583 5583 5583 5583 5583 5583 5583 5584 5584 5584 5584 5584 5584 5584 5583 5583 5583 5583 5583 5582 5581 5579 5576 5573 5570 5565 5561 5557 5554 5552 5550 5550 5549 5548 5546 5545 5543 5541 5539 5537 5535 5533 5530 5528 5525 5522 5520 5517 5514 5511 5509 5506 5504 5502 5500 5498 5497 5496 5495 5494 5494 5493 5493 5493 5492 5493 5493 5493 5493
5579 5579 5579 5579 5579 5579 5579 5579 5579 5579 5579 5579 5580 5580 5580 5580 5580 5580 5580 5580 5580 5581 5581 5580 5579 5577 5575 5573 5570 5566 5561 5556 5553 5551 5549 5548 5547 5546 5545 5544 5542 5541 5539 5537 5535 5532 5530 5527 5525 5522 5519 5516 5513 5510 5507 5505 5503 5501 5499 5497 5495 5494 5493 5492 5491 5491 5491 5490 5490 5490 5490 5490 5490 5490
5573 5574 5574 5574 5574 5574 5574 5575 5575 5575 5575 5576 5576 5576 5576 5576 5577 5577 5577 5577 5578 5578 5578 5577 5576 5574 5572 5570 5567 5563 5558 5553 5550 5548 5546 5545 5544 5543 5542 5541 5540 5538 5536 5534 5532 5530 5528 5525 5522 5519 5516 5513 5510 5507 5504 5502 5501 5499 5496 5494 5492 5491 5491 5490 5489 5489 5488 5488 5488 5488 5488 5488 5488 5488
5567 5568 5568 5569 5569 5570 5570 5570 5571 5571 5572 5572 5572 5572 5573 5573 5573 5574 5574 5575 5575 5575 5575 5574 5573 5571 5569 5567 5564 5560 5556 5551 5547 5545 5544 5543 5542 5541 5540 5539 5537 5536 5534 5532 5530 5528 5526 5523 5520 5517 5514 5511 5508 5505 5502 5500 5498 5496 5494 5491 5490 5490 5489 5489 5488 5487 5487 5486 5487 5487 5487 5487 5487 5487
5561 5562 5563 5564 5565 5565 5566 5566 5567 5568 5568 5568 5568 5569 5569 5570 5570 5571 5572 5572 5573 5573 5572 5571 5570 5568 5566 5564 5561 5558 5554 5550 5546 5544 5542 5541 5540 5539 5538 5536 5535 5534 5533 5531 5528 5526 5524 5521 5518 5515 5512 5509 5506 5503 5500 5498 5496 5494 5491 5489 5488 5488 5488 5488 5487 5487 5486 5486 5487 5487 5487 5487 5487 5487
5556 5557 5558 5560 5561 5561 5562 5562 5563 5564 5564 5564 5565 5565 5566 5567 5568 5568 5569 5570 5570 5570 5569 5568 5567 5565 5564 5562 5559 5556 5552 5548 5545 5542 5540 5539 5538 5537 5536 5535 5534 5532 5531 5529 5527 5524 5522 5520 5517 5514 5511 5508 5505 5501 5498 5496 5494 5491 5489 5487 5486 5486 5487 5487 5487 5486 5486 5486 5487 5487 5487 5487 5487 5487
Wind_Speed
23 22 21 19 18 17 17 16 16 15 15 14 13 13 12 12 11 11 11 11 11 11 11 11 11 12 12 12 12 12 12 12 12 12 12 12 13 13 13 13 14 15 15 16 16 16 16 16 17 17 18 19 20 20 21 22 23 23 24 25 26 27 29 31 32 33 34 34 34 34 34 34 34 34
22 21 20 18 17 17 16 16 15 14 13 13 12 11 11 11 11 11 11 11 11 11 11 12 12 11 11 12 12 12 11 11 11 11 12 12 12 12 13 13 13 14 14 15 15 15 15 16 16 16 16 16 17 17 18 19 20 20 21 23 25 26 28 29 31 33 34 34 34 34 35 36 36 36
20 19 18 17 17 16 15 15 14 13 13 12 11 11 11 11 12 12 11 11 12 12 12 13 13 13 12 12 12 12 12 12 12 12 12 12 13 13 13 14 14 15 15 15 16 16 16 17 17 17 17 16 16 17 17 18 18 19 19 20 22 23 25 26 28 31 33 34 35 35 36 36 37 38
18 18 18 17 16 16 15 14 14 13 13 12 12 12 13 13 13 13 13 13 13 13 13 13 14 14 14 14 14 14 14 14 14 14 14 14 14 15 15 15 16 16 17 17 17 18 18 18 19 19 19 18 18 18 18 19 19 19 20 20 20 21 21 21 22 24 26 28 31 35 37 37 38 40
18 18 18 18 17 17 16 15 15 14 14 13 13 14 14 14 15 15 15 15 15 15 15 15 15 15 15 15 15 15 15 15 15 16 16 16 16 16 17 18 18 18 18 19 19 20 20 20 20 21 21 21 20 20 20 20 21 21 21 21 21 21 21 21 21 20 21 21 22 25 28 33 37 41
19 19 18 18 18 17 17 17 16 16 15 15 15 15 15 15 16 16 16 16 17 17 17 17 16 16 16 16 16 16 16 16 17 17 18 18 19 19 19 19 20 20 20 21 21 22 22 22 23 23 23 23 23 22 22 22 22 22 22 23 23 23 23 22 22 22 22 22 22 22 23 25 28 32
21 20 19 18 18 17 17 17 16 16 15 15 15 15 15 16 17 17 17 18 18 18 19 19 19 19 19 18 18 19 19 19 20 20 21 21 22 22 22 22 22 23 23 23 23 24 24 24 25 25 25 25 24 24 23 23 23 23 23 23 24 25 25 25 24 24 24 24 24 24 24 24 25 26
23 22 21 20 20 19 18 18 18 17 17 17 17 17 17 17 18 18 19 19 20 20 20 20 20 20 21 21 21 21 22 22 23 23 24 24 25 25 26 26 26 26 26 26 26 26 26 26 26 26 26 26 26 25 24 24 24 24 24 24 25 25 26 26 27 27 27 26 26 26 26 26 26 26
24 24 23 23 22 22 21 21 21 20 19 19 19 19 19 19 20 20 21 21 22 22 22 22 22 22 22 22 23 23 24 24 24 25 25 26 27 28 28 29 29 29 29 29 29 29 28 28 27 27 27 27 27 27 26 26 26 26 26 26 26 27 27 28 28 28 29 28 28 28 28 28 28 28
26 26 25 25 24 24 24 24 23 22 22 21 21 21 21 21 21 22 23 24 25 25 25 24 24 24 24 25 25 26 26 26 26 26 27 28 28 29 30 30 30 31 32 32 32 32 31 30 29 29 29 29 29 29 29 29 29 30 30 30 30 30 30 31 31 31 31 31 31 30 30 31 31 31
28 28 27 27 26 26 26 26 26 25 24 23 23 22 22 23 23 24 25 26 27 28 28 27 27 27 28 29 30 30 30 30 30 31 32 32 32 32 32 32 31 32 34 34 34 35 35 35 35 34 34 34 34 34 33 33 34 34 34 35 35 35 35 35 34 34 34 34 33 33 33 33 33 33
29 29 29 28 28 27 27 28 28 27 26 26 25 24 24 25 26 27 28 29 29 30 31 31 31 31 32 33 34 34 34 35 36 37 37 38 37 37 37 36 34 34 35 36 36 36 37 38 39 39 39 39 40 41 41 40 41 41 41 41 41 41 41 40 39 39 38 38 37 37 36 36 36 35
31 30 29 29 29 29 29 29 30 30 30 29 29 29 29 30 30 31 31 32 33 33 34 34 34 35 36 37 37 38 39 40 41 42 41 41 41 41 41 42 40 39 40 41 42 42 42 43 44 45 45 45 46 48 48 48 48 49 49 48 47 46 46 45 44 43 42 42 41 41 40 39 39 39
33 32 31 30 30 30 30 30 31 32 32 31 31 32 33 34 34 34 35 35 36 36 36 36 37 38 39 40 41 41 42 43 44 44 44 45 45 46 46 48 48 47 48 49 50 51 52 52 52 52 53 53 53 54 55 55 55 55 54 54 53 52 51 50 49 48 47 46 45 45 44 44 43 42
34 33 32 32 31 30 30 31 32 32 32 33 33 34 35 36 37 37 38 38 38 39 39 40 41 41 43 44 45 45 46 47 47 48 49 50 51 52 53 54 55 55 55 56 57 58 59 59 58 58 59 59 59 59 60 60 60 60 59 59 58 57 57 56 54 52 51 50 49 48 48 48 47 46
35 34 35 35 34 33 33 33 34 35 36 37 37 37 37 37 37 38 39 39 40 40 41 42 43 44 46 47 48 48 50 51 51 53 54 55 56 56 57 57 58 59 59 59 60 60 61 62 62 62 62 63 62 62 62 63 63 63 63 62 62 61 61 60 59 58 57 55 54 53 52 51 50 50
35 35 37 38 37 37 36 35 36 37 38 39 39 38 39 39 39 39 40 41 41 42 42 44 45 45 46 47 47 48 49 50 51 52 54 55 55 56 56 56 57 58 58 59 59 59 60 62 62 62 63 64 64 64 64 64 65 65 65 64 64 64 64 63 63 62 61 60 58 56 55 54 53 53
38 39 40 39 39 39 37 36 36 37 38 39 39 40 40 40 40 40 40 41 42 43 44 44 45 45 45 46 47 47 48 49 50 51 52 53 54 55 56 56 57 57 58 59 59 59 60 61 62 62 62 63 63 64 64 64 64 65 65 66 65 65 65 65 65 64 64 63 62 60 57 56 55 55
41 41 40 40 40 39 39 38 39 39 40 40 40 39 38 38 38 39 40 41 42 43 44 44 45 45 45 46 47 48 49 49 50 51 52 53 55 55 56 57 58 59 59 60 61 60 60 61 62 63 62 62 62 63 63 63 63 64 64 65 65 65 65 65 65 66 65 65 64 63 61 59 58 57
42 41 41 41 41 42 42 42 42 42 41 40 39 38 37 37 37 38 39 40 41 42 44 44 45 45 46 47 48 48 50 51 51 52 53 54 55 56 57 57 58 59 60 61 61 61 61 62 62 63 64 63 63 63 64 64 64 64 65 66 66 65 65 65 66 66 66 66 66 66 65 63 62 60
41 42 42 42 42 42 42 42 43 43 42 41 40 39 39 38 39 40 41 42 43 44 45 45 46 47 47 48 49 50 51 52 53 54 55 56 57 58 58 59 59 60 60 61 62 62 63 63 64 65 65 66 66 66 67 67 67 67 68 68 68 68 68 67 67 67 67 67 67 67 67 67 66 65
42 43 43 42 42 42 42 43 44 44 43 43 42 42 42 42 43 44 45 46 46 46 46 46 47 48 49 50 51 51 52 54 55 55 56 57 58 59 59 60 60 61 61 62 63 63 64 65 66 66 67 68 68 68 67 68 68 68 68 68 68 68 69 69 70 70 69 68 68 68 68 68 69 69
47 47 46 45 44 44 44 45 45 45 45 45 45 45 46 47 47 48 48 48 47 47 47 47 48 49 49 50 51 52 53 54 56 57 57 58 59 59 59 60 61 61 62 63 64 64 65 66 67 68 68 67 66 65 63 62 62 62 62 62 62 63 64 65 67 69 70 70 69 69 69 69 69 69
50 50 48 47 46 46 46 46 46 46 46 47 47 48 49 49 49 50 49 48 48 47 48 48 49 49 50 50 51 52 53 54 55 56 57 58 59 59 59 60 61 62 62 64 64 65 66 66 67 66 66 64 61 59 58 57 56 56 56 57 57 57 57 58 60 63 65 67 68 69 69 69 69 69
50 50 49 48 47 46 46 47 47 48 48 49 49 49 49 50 51 51 49 48 48 48 49 49 50 50 50 51 51 52 53 54 55 56 57 57 58 59 60 60 61 61 62 63 64 65 65 64 63 62 60 59 58 57 56 55 55 55 55 55 55 55 55 54 55 57 58 60 62 64 66 67 68 68
49 49 48 48 47 47 47 48 48 48 48 48 49 50 51 53 52 51 49 48 49 49 49 50 50 50 51 51 52 53 53 54 55 56 56 57 58 59 59 60 60 60 61 62 63 63 62 60 59 58 57 57 57 57 57 57 57 57 57 57 57 57 56 56 56 56 56 56 56 58 59 61 63 65
46 47 48 48 48 48 48 48 48 47 47 48 50 52 53 52 51 50 49 49 49 49 50 50 51 51 51 52 53 53 53 54 55 55 56 56 57 58 58 58 59 59 60 60 60 59 58 57 57 57 57 57 58 58 58 59 59 59 59 59 59 58 58 58 57 57 57 56 55 55 55 55 57 59
45 47 48 49 49 49 48 48 47 47 48 50 51 52 51 51 51 50 50 49 49 49 50 51 51 52 52 52 53 53 53 54 54 55 55 55 55 56 56 57 57 58 58 58 57 57 57 57 57 58 58 58 59 59 59 59 59 60 60 60 60 59 59 59 58 58 57 57 57 56 55 54 54 54
46 48 48 48 49 48 48 47 47 49 51 52 53 52 52 52 51 50 49 49 49 50 50 51 52 52 52 52 53 53 53 53 53 53 53 53 53 54 54 55 55 56 57 57 57 58 58 57 57 57 57 57 57 57 57 57 57 58 58 58 57 57 58 58 58 57 57 57 57 57 56 56 55 54
49 49 49 49 48 48 48 49 50 52 54 55 55 54 53 52 50 50 49 49 50 50 51 51 51 52 52 51 51 51 50 50 51 51 51 51 52 52 53 53 54 56 57 57 57 56 56 56 55 54 54 53 53 53 52 52 52 52 52 52 51 51 52 53 54 54 54 55 55 55 56 56 56 56
52 52 51 50 50 50 51 52 54 56 57 57 56 54 52 51 50 50 50 50 50 51 51 51 50 50 49 49 48 48 47 48 48 49 49 50 51 52 53 53 54 55 56 56 55 55 54 53 52 50 47 46 45 45 45 44 44 44 44 44 43 43 44 45 46 47 48 49 50 52 53 54 55 56
52 53 52 51 51 52 54 55 57 59 59 58 55 53 51 51 50 50 50 51 51 50 49 48 47 46 45 45 45 45 45 46 47 48 49 49 51 52 53 53 53 54 55 55 54 51 48 45 43 41 39 38 37 37 37 37 38 37 37 36 37 37 37 38 38 39 40 41 43 45 47 49 51 53
51 52 52 52 53 55 56 58 60 60 59 56 53 52 51 50 50 50 51 50 49 47 45 44 42 42 41 42 42 43 44 45 46 47 48 49 50 51 51 52 53 53 52 49 45 41 38 36 34 34 34 33 34 35 35 35 35 35 34 34 34 34 35 35 35 34 34 35 35 37 39 41 44 46
51 52 53 54 56 57 59 61 60 58 56 53 52 51 50 50 50 50 49 47 45 42 40 39 38 38 39 40 41 42 43 44 46 47 48 49 49 50 51 52 50 46 41 38 35 33 32 31 31 31 31 32 33 34 35 35 34 34 33 33 32 32 33 34 34 34 33 32 31 32 32 34 35 37
52 53 54 56 58 60 61 60 58 55 53 51 50 50 49 49 49 47 45 42 39 37 36 36 36 37 38 38 39 40 41 43 44 46 47 48 49 49 48 44 38 34 31 30 30 29 29 29 29 29 30 31 32 34 35 35 35 33 33 32 31 30 30 33 35 35 34 32 31 30 30 30 30 31
50 52 55 58 60 60 59 57 54 52 50 49 49 48 47 46 44 41 38 36 34 33 34 34 35 35 35 35 36 38 40 42 44 45 46 47 45 42 37 32 28 27 26 26 27 27 27 27 27 28 30 32 34 35 37 37 36 34 33 32 31 30 29 30 33 34 34 33 32 31 30 29 29 29
52 56 58 59 58 56 53 51 50 49 47 47 45 44 43 40 37 35 33 32 32 32 33 32 31 30 31 32 34 37 39 41 43 45 44 42 37 31 27 25 24 24 24 24 25 25 26 26 28 30 33 35 35 36 36 36 36 35 34 33 31 30 29 28 29 31 31 31 31 30 30 30 29 30
58 58 57 54 51 48 46 45 45 44 43 42 41 39 37 35 32 31 30 30 31 31 30 28 26 26 29 31 33 36 39 42 43 43 39 33 27 23 22 21 21 22 23 25 25 25 25 28 31 33 34 35 35 34 33 33 34 34 33 33 32 30 28 27 27 27 27 27 27 27 27 27 27 27
52 47 44 43 42 42 42 42 41 40 38 37 36 34 32 31 30 29 29 29 29 27 24 22 23 25 28 30 32 36 39 41 41 37 30 25 22 20 19 19 20 22 23 24 24 25 27 29 32 33 34 34 34 32 30 30 31 31 31 31 30 29 27 25 24 24 23 24 24 24 23 23 22 23
39 36 35 35 35 36 37 38 37 36 34 33 32 30 29 29 28 28 28 26 24 21 19 20 22 24 27 29 32 36 39 39 36 29 23 20 19 18 17 18 20 21 22 23 24 26 28 29 31 32 32 32 30 29 28 27 27 27 28 28 27 25 23 21 20 20 20 20 21 20 19 18 18 18
33 33 34 34 34 34 33 33 32 32 30 30 29 28 28 28 27 26 24 21 18 17 17 19 21 23 25 28 30 34 37 35 29 22 18 17 17 16 16 18 19 19 20 22 24 26 27 28 29 30 29 29 29 28 27 26 24 25 26 26 24 20 17 16 16 16 16 17 17 16 15 15 15 15
33 34 34 33 34 33 31 30 30 29 28 28 27 27 27 26 25 22 19 17 16 16 16 18 20 22 24 26 28 32 34 30 23 18 16 15 15 15 16 17 16 17 19 21 22 23 24 25 26 27 27 28 29 28 26 23 22 23 24 23 19 15 12 12 13 13 13 13 13 11 11 11 11 11
36 35 33 33 33 32 30 30 29 28 27 27 26 26 25 23 20 18 17 16 15 15 15 17 19 20 22 24 26 29 31 27 20 16 15 14 14 15 16 15 15 16 18 20 20 21 22 23 25 26 27 27 27 25 23 21 21 22 23 20 15 11 10 11 11 9 8 8 7 6 6 6 7 8
39 37 35 34 33 31 30 29 28 27 26 26 25 24 22 19 18 17 16 15 14 14 15 16 17 18 21 23 24 26 28 26 20 16 15 14 14 14 13 13 14 16 17 18 19 19 20 22 23 25 26 26 24 22 20 20 21 22 22 18 13 9 8 8 6 5 4 3 3 2 2 1 3 5
42 39 36 33 32 30 29 28 27 26 25 25 23 21 19 17 18 17 16 14 13 14 14 15 16 18 20 22 23 24 26 26 22 18 15 14 14 12 11 12 13 15 17 18 18 18 19 21 23 25 26 25 23 21 20 19 20 22 21 16 11 8 7 7 7 7 5 4 3 3 1 2 5 6
Wind_Direction
274 272 270 268 264 261 258 255 253 251 250 250 250 252 254 258 261 264 268 272 277 281 284 287 289 291 292 294 295 296 297 297 297 296 294 291 287 282 278 273 269 267 266 267 268 269 270 271 271 273 275 276 276 276 276 276 275 273 271 269 266 263 260 258 257 259 260 258 256 255 255 256 255 253
273 271 269 266 263 259 256 253 251 250 249 251 253 257 261 264 266 268 271 275 279 282 286 288 289 291 292 293 294 296 297 297 298 297 297 295 293 290 286 282 278 274 270 269 268 268 268 268 268 269 270 272 273 274 275 276 276 275 272 269 266 262 260 258 258 259 260 261 261 259 257 255 255 254
277 274 271 267 264 261 259 257 256 256 257 258 259 262 264 266 267 268 269 271 273 277 280 283 284 285 285 285 286 287 287 288 288 288 288 287 287 286 285 284 283 281 278 276 275 274 274 273 273 273 273 273 273 274 274 275 277 278 279 277 273 268 262 258 256 256 257 258 259 259 258 257 256 256
278 276 273 270 267 265 263 262 262 262 263 263 264 265 266 266 266 265 265 265 266 268 270 273 276 278 279 279 279 279 280 280 280 280 280 280 279 280 280 280 279 279 280 279 279 278 277 277 277 277 278 278 278 277 276 276 276 278 280 282 283 282 279 274 267 262 258 257 256 256 256 257 258 259
275 272 271 269 267 265 263 260 258 257 258 260 262 264 265 267 267 267 267 267 266 267 267 267 268 270 271 273 274 275 276 278 279 278 278 277 276 275 275 275 274 274 274 275 276 277 277 277 277 277 278 278 279 278 278 277 277 277 278 279 281 283 284 284 282 279 275 271 268 265 263 261 261 260
268 265 264 263 262 262 261 259 258 258 259 261 262 263 265 266 268 269 270 270 269 268 268 267 266 266 267 268 270 273 274 276 277 278 279 279 278 277 275 274 274 273 272 271 271 272 273 274 275 275 276 276 276 277 277 277 277 277 277 277 278 279 279 280 280 280 280 279 278 276 275 272 269 266
266 264 261 259 258 257 257 258 259 260 262 264 265 266 268 269 271 272 272 271 270 269 269 268 267 267 267 267 268 270 271 273 274 275 277 278 278 279 278 276 275 274 274 272 271 271 271 271 272 273 274 274 274 274 274 275 276 276 276 276 276 276 276 276 276 276 276 277 277 277 277 277 277 276
268 267 265 262 260 258 256 256 258 260 263 265 266 268 270 273 274 276 276 275 273 272 271 271 271 270 270 270 269 269 270 270 272 273 274 275 276 276 276 276 276 275 274 273 272 271 270 269 269 270 270 271 272 272 272 273 273 274 275 275 275 275 275 274 274 274 273 273 274 274 275 275 276 278
265 265 265 264 263 261 259 258 259 263 267 270 272 274 276 278 279 280 279 278 276 276 276 276 275 274 272 271 270 270 270 270 272 273 274 274 274 274 274 274 274 273 273 272 271 270 269 268 267 266 266 266 267 268 270 271 273 273 274 275 275 276 275 275 274 273 272 272 271 271 271 272 272 273
261 261 261 261 261 261 261 261 262 265 269 271 272 275 277 279 281 282 282 280 279 278 278 278 277 275 274 272 270 270 272 272 274 276 277 276 275 274 273 273 272 272 271 270 270 269 269 267 267 266 265 265 264 265 267 270 273 275 276 277 277 277 277 277 276 275 273 272 271 270 269 269 269 269
256 256 256 256 257 258 260 261 263 265 267 268 268 270 272 274 277 280 281 282 281 279 277 276 275 274 273 272 272 271 272 273 274 276 278 279 278 277 275 274 272 272 271 270 270 270 269 269 268 267 267 268 267 267 267 269 271 272 274 276 277 278 278 278 277 277 276 274 273 271 270 269 268 267
254 253 253 253 254 256 258 260 263 264 264 264 265 268 271 273 275 277 279 280 280 278 276 273 272 273 272 272 273 273 273 274 275 277 279 280 280 279 277 275 274 273 273 273 272 271 271 271 271 270 270 270 270 270 270 270 270 270 271 271 273 274 275 276 276 276 276 275 274 272 271 270 269 268
253 252 252 254 255 257 259 261 263 264 264 265 265 268 270 271 273 275 276 278 278 277 276 274 272 272 273 273 273 274 275 276 277 278 279 280 281 280 279 277 276 276 276 276 275 275 275 275 275 275 274 273 273 273 273 272 272 272 272 271 271 271 271 271 272 272 273 273 273 273 272 270 269 268
255 255 255 257 257 258 259 260 261 263 265 265 266 268 270 271 272 273 274 275 275 275 275 274 274 273 273 274 274 274 274 275 276 277 278 279 280 280 280 280 279 279 278 278 278 278 278 278 277 277 277 276 275 275 275 274 274 273 273 272 272 271 271 270 269 269 269 269 270 270 270 270 269 268
256 258 259 258 258 258 258 259 261 263 266 269 271 272 273 273 274 274 274 274 274 274 273 272 272 272 273 273 273 273 274 274 274 275 276 277 278 278 279 279 279 279 279 279 279 280 279 279 279 278 278 277 276 275 275 275 274 274 273 273 272 272 271 271 270 268 267 267 267 268 268 268 268 267
256 259 259 257 258 259 259 260 262 265 268 271 274 275 274 275 276 277 277 277 277 277 276 276 275 274 274 273 273 273 274 274 274 275 276 276 277 277 277 278 278 278 278 279 279 279 280 280 279 279 278 277 276 275 274 274 274 273 273 272 272 272 271 271 270 269 268 267 267 266 266 265 265 265
256 257 257 257 257 258 258 260 263 265 268 270 271 272 273 275 276 277 278 278 278 278 277 277 277 276 276 276 276 276 276 276 277 277 277 278 278 278 278 279 279 279 279 279 279 279 279 279 279 279 278 278 277 276 275 274 273 273 272 272 271 271 270 270 270 270 269 269 268 266 265 264 263 263
258 258 259 260 259 258 259 262 265 266 267 268 269 271 272 273 274 275 276 277 277 277 276 276 276 277 278 278 278 279 279 279 279 279 279 280 280 281 281 282 282 282 282 282 282 281 281 280 280 279 279 278 278 277 277 276 274 274 273 272 271 270 270 269 269 269 269 269 268 267 266 264 263 262
258 257 260 261 261 262 265 268 269 268 268 268 269 270 271 272 274 275 276 277 277 278 278 278 278 278 279 279 279 279 279 279 279 279 280 280 280 280 281 282 282 282 282 282 282 282 282 282 282 281 280 279 279 278 278 277 277 276 275 274 273 272 271 270 269 268 268 268 268 268 267 265 264 262
257 258 260 262 264 266 269 270 270 269 268 267 267 269 271 274 276 279 280 281 281 281 281 281 281 281 281 281 281 281 281 280 280 280 280 280 280 280 280 280 281 281 281 282 282 282 282 282 281 281 281 281 280 280 279 278 278 277 276 276 275 274 273 272 270 269 267 267 266 266 266 266 265 264
257 261 264 265 266 267 267 267 267 266 266 266 267 269 272 276 280 283 285 285 285 284 284 284 283 283 283 283 283 283 283 283 283 282 282 281 281 281 280 281 281 282 282 282 282 282 282 282 282 282 282 282 282 282 281 281 280 278 277 277 276 275 274 273 271 270 268 267 266 265 265 265 265 265
260 264 265 266 266 266 265 265 265 265 266 267 268 270 274 278 281 284 287 287 287 286 285 285 285 285 285 285 285 285 285 284 284 283 283 282 282 282 282 282 282 282 283 282 282 282 282 283 283 283 283 283 283 283 283 282 281 280 279 278 276 275 274 273 271 270 269 268 267 265 265 264 265 265
262 263 264 264 264 264 265 265 265 265 266 268 269 272 275 279 282 286 288 288 288 287 286 286 286 287 287 287 286 286 285 285 284 284 283 283 283 283 283 283 282 282 282 282 282 283 283 284 284 284 284 283 283 283 282 281 281 280 280 278 277 275 274 273 272 271 269 268 267 266 265 264 264 264
263 264 263 263 263 264 265 265 265 266 266 267 270 273 276 279 283 287 289 288 287 287 287 287 288 288 288 287 287 286 285 284 283 283 283 283 283 282 282 282 281 282 282 283 284 284 284 285 284 284 284 283 283 282 281 280 279 278 278 278 277 276 275 274 274 272 271 269 267 266 265 265 264 264
263 263 263 263 263 263 263 263 263 264 266 268 271 274 277 281 286 288 288 288 288 288 289 289 289 289 288 287 286 285 284 283 283 282 282 281 281 281 280 281 281 282 283 284 285 285 284 284 284 284 283 283 283 281 280 279 278 277 276 276 276 275 275 274 274 274 273 271 269 267 266 265 264 264
262 262 262 263 263 263 263 263 264 266 268 271 274 277 281 285 287 288 288 288 289 289 289 289 289 288 287 286 285 284 283 283 282 282 281 280 280 280 280 281 282 283 284 285 285 285 284 284 284 283 283 283 282 282 281 280 279 278 277 276 275 274 274 273 273 273 273 273 272 270 268 267 265 264
261 261 261 261 261 262 263 264 266 268 271 274 279 282 284 286 286 287 288 289 289 289 289 288 287 286 285 284 284 283 283 282 281 281 280 280 281 281 282 283 284 285 285 285 285 285 285 285 284 284 284 284 283 282 281 280 279 279 278 276 275 274 274 273 272 272 272 272 271 271 270 269 267 266
260 260 261 261 261 262 263 265 267 270 274 279 284 285 285 286 287 288 289 289 288 287 287 286 285 284 284 283 283 283 282 282 281 281 281 282 282 283 285 286 287 287 287 287 287 286 286 286 286 286 286 285 284 283 282 281 280 279 278 276 276 275 274 272 271 270 270 269 269 269 269 269 268 267
261 261 261 261 262 263 263 265 269 273 278 283 286 286 286 287 287 288 287 287 286 285 284 284 283 283 283 283 283 283 284 284 284 284 284 284 285 286 287 287 287 287 287 287 287 288 288 289 289 289 288 287 286 285 283 282 281 280 279 278 277 276 274 273 271 270 268 267 267 266 266 266 266 266
260 260 260 261 262 263 264 267 272 276 281 285 287 286 286 286 286 286 285 284 284 283 283 283 283 283 284 284 284 285 285 285 285 285 286 286 287 287 287 287 287 288 288 289 290 290 291 291 291 290 290 289 288 286 285 284 283 282 281 280 279 277 276 274 272 270 268 267 266 265 264 264 264 264
255 255 257 260 262 264 266 270 274 278 282 285 286 286 285 285 285 284 283 282 282 282 282 283 283 284 285 285 286 286 286 286 286 286 287 287 287 287 287 288 290 291 292 292 293 293 293 293 292 291 290 288 287 286 286 285 285 285 285 284 283 281 279 277 275 273 270 268 267 265 264 263 262 262
251 253 256 260 263 265 268 272 276 280 283 285 285 284 284 283 283 282 281 281 281 281 282 283 283 284 284 285 285 285 285 285 286 286 287 287 287 288 290 292 293 293 293 293 294 294 293 292 291 290 289 288 288 288 288 289 288 288 287 287 286 284 282 281 279 277 275 272 269 266 264 263 262 261
254 257 261 264 267 270 273 276 279 282 283 283 283 282 282 282 281 280 280 280 281 282 282 282 283 283 284 284 284 285 285 286 286 287 287 288 290 292 294 294 294 294 294 294 293 293 292 291 290 290 291 292 292 292 292 291 291 290 289 287 285 284 283 282 281 280 278 275 272 269 266 264 263 262
260 263 266 269 272 274 277 279 281 282 282 281 281 280 280 280 280 280 280 281 281 281 281 281 282 283 283 284 284 285 286 287 288 289 290 292 294 295 295 294 294 294 294 293 293 293 293 293 293 294 294 295 296 296 295 295 295 294 292 290 288 285 283 281 279 278 277 276 274 272 270 268 267 266
263 265 268 272 275 278 279 280 280 280 279 279 278 278 278 279 279 280 280 280 279 279 280 281 282 283 284 285 286 287 288 289 290 291 293 295 296 295 294 293 293 293 293 293 294 295 297 297 297 297 298 299 302 303 303 302 302 300 299 297 295 290 283 278 276 275 274 274 273 273 272 271 271 270
265 269 273 276 278 279 279 278 278 278 277 277 277 277 278 278 279 279 277 277 277 279 280 281 283 284 285 286 287 288 289 291 292 294 296 297 297 295 294 293 293 293 294 296 298 300 300 299 299 300 303 305 308 308 307 305 304 303 302 301 298 293 287 280 276 274 273 272 272 272 272 272 271 270
269 273 275 277 277 276 275 275 275 276 276 276 277 277 278 278 277 276 275 275 277 278 281 283 284 284 285 286 289 291 293 295 297 299 300 299 297 294 292 293 294 296 299 302 303 303 301 301 302 305 307 308 309 308 306 304 302 302 302 300 298 294 290 287 283 279 276 274 274 273 273 271 270 269
271 273 274 274 273 272 273 273 273 274 275 275 276 277 277 276 274 273 273 274 277 279 282 282 281 282 285 289 293 297 299 300 302 303 303 299 294 291 292 294 298 302 305 306 306 304 304 305 307 308 309 310 310 309 306 302 301 300 299 298 296 294 292 290 288 284 279 277 276 275 274 272 271 270
269 270 272 273 272 272 272 272 272 272 274 274 275 275 274 273 271 271 272 275 278 279 278 277 279 284 291 296 300 303 305 306 307 306 302 297 291 290 293 298 304 308 309 308 309 309 309 310 311 311 311 311 311 309 306 302 301 301 300 298 296 293 292 290 286 282 279 277 277 276 274 273 272 272
263 265 269 271 272 271 272 272 272 272 272 272 273 272 271 269 269 270 273 276 276 273 271 276 284 292 297 303 308 311 312 312 311 307 300 295 293 292 297 304 309 311 312 313 314 315 314 314 313 313 313 313 313 312 309 305 303 303 303 301 297 293 290 287 283 279 277 277 276 275 273 272 272 274
257 264 267 268 268 269 271 272 271 270 270 270 269 267 266 266 267 270 273 270 265 264 271 282 291 298 303 309 315 319 319 317 312 306 301 299 297 298 303 309 312 314 317 318 318 317 317 317 316 316 317 318 319 317 313 308 306 307 308 304 299 294 290 286 283 281 279 276 272 270 269 271 273 277
262 268 267 265 266 268 269 270 269 268 267 266 265 263 263 265 268 268 264 256 255 264 277 288 296 303 309 314 322 326 326 322 315 309 306 303 302 304 309 312 316 319 320 319 318 319 320 321 322 322 324 324 323 319 315 311 309 312 312 307 299 291 288 288 290 287 278 267 262 262 265 270 276 280
271 271 266 263 264 266 267 267 266 265 264 262 261 261 263 265 264 258 249 246 254 268 281 291 301 309 314 319 326 333 335 330 322 315 311 308 306 308 311 315 319 322 321 320 320 323 326 327 328 330 330 328 324 321 319 317 316 317 317 310 296 283 284 291 292 285 268 253 250 259 266 273 282 287
272 269 265 263 262 262 263 263 262 261 261 260 260 261 261 258 250 243 240 245 257 270 283 296 307 315 320 323 329 337 342 341 334 323 315 312 310 309 311 317 324 327 326 323 323 327 331 333 336 337 334 329 327 326 326 325 323 322 320 310 290 272 274 272 256 232 211 197 202 225 247 307 324 309
267 265 264 261 259 259 260 259 259 259 259 259 259 257 252 243 237 235 237 245 258 271 286 300 311 320 324 325 329 338 346 350 348 337 323 313 310 309 312 320 329 333 332 329 328 330 333 338 342 342 338 334 334 335 333 330 328 328 323 309 281 259 249 227 201 184 176 178 190 208 233 357 347 327